Total_Precipitation_Accumulation
1.27 1.60 2.02 2.41 2.89 3.57 3.99 4.03 3.72 2.94 2.36 1.96 1.74 1.51 1.32 1.15 1.00 0.89 0.78 0.69 0.69 0.64 0.64 0.61 0.63 0.69 0.69 0.68 0.83 0.95 0.96 0.79 0.95 1.03 0.81 0.66 0.59 0.57 0.57 0.52 0.51 0.53 0.58
1.11 1.57 2.17 2.75 3.08 3.39 3.49 3.31 2.82 2.14 1.65 1.32 1.12 0.91 0.77 0.67 0.60 0.53 0.52 0.53 0.54 0.54 0.53 0.50 0.48 0.49 0.52 0.54 0.60 0.71 0.72 0.63 0.74 0.84 0.77 0.57 0.50 0.45 0.34 0.37 0.38 0.38 0.49
1.29 1.98 2.67 3.12 3.19 2.99 2.57 2.10 1.73 1.32 1.12 0.93 0.75 0.59 0.48 0.39 0.34 0.31 0.32 0.34 0.33 0.33 0.33 0.32 0.32 0.34 0.39 0.42 0.49 0.57 0.60 0.54 0.52 0.63 0.73 0.57 0.43 0.39 0.34 0.34 0.36 0.43 0.47
1.41 2.08 2.57 2.58 2.54 2.24 1.74 1.40 1.20 0.98 0.80 0.69 0.63 0.51 0.39 0.36 0.32 0.29 0.27 0.26 0.23 0.23 0.23 0.21 0.21 0.22 0.25 0.33 0.35 0.44 0.55 0.54 0.44 0.47 0.55 0.55 0.51 0.44 0.39 0.37 0.35 0.40 0.43
1.02 1.22 1.39 1.36 1.30 1.14 1.14 1.12 1.03 0.97 0.82 0.68 0.62 0.53 0.37 0.31 0.31 0.31 0.29 0.28 0.27 0.24 0.23 0.22 0.21 0.21 0.21 0.24 0.28 0.36 0.46 0.52 0.47 0.44 0.50 0.59 0.57 0.49 0.45 0.38 0.39 0.43 0.37
0.58 0.57 0.56 0.56 0.63 0.60 0.68 0.75 0.70 0.78 0.80 0.70 0.58 0.50 0.42 0.35 0.32 0.29 0.26 0.24 0.24 0.26 0.25 0.25 0.26 0.26 0.26 0.26 0.26 0.28 0.33 0.45 0.53 0.53 0.51 0.56 0.56 0.46 0.43 0.35 0.32 0.40 0.39
0.39 0.45 0.46 0.49 0.56 0.46 0.45 0.52 0.51 0.51 0.54 0.51 0.43 0.41 0.42 0.36 0.31 0.27 0.21 0.20 0.18 0.20 0.22 0.23 0.25 0.28 0.30 0.31 0.28 0.29 0.28 0.36 0.46 0.49 0.52 0.52 0.51 0.54 0.55 0.51 0.41 0.43 0.47
0.23 0.27 0.29 0.34 0.38 0.31 0.31 0.36 0.41 0.39 0.35 0.31 0.28 0.29 0.31 0.28 0.27 0.30 0.24 0.20 0.20 0.20 0.20 0.20 0.19 0.22 0.27 0.32 0.34 0.32 0.33 0.36 0.38 0.39 0.52 0.57 0.51 0.61 0.65 0.68 0.72 0.63 0.63
0.11 0.11 0.13 0.18 0.20 0.21 0.23 0.26 0.30 0.30 0.26 0.23 0.21 0.22 0.24 0.23 0.24 0.25 0.24 0.21 0.24 0.22 0.20 0.20 0.20 0.22 0.24 0.28 0.32 0.32 0.34 0.38 0.39 0.41 0.51 0.59 0.65 0.69 0.66 0.76 0.84 0.85 0.78
0.06 0.06 0.07 0.09 0.11 0.13 0.19 0.22 0.23 0.26 0.24 0.20 0.16 0.12 0.14 0.17 0.19 0.17 0.19 0.20 0.20 0.20 0.20 0.20 0.19 0.20 0.21 0.23 0.27 0.29 0.35 0.42 0.47 0.54 0.59 0.61 0.67 0.76 0.69 0.75 0.82 0.84 0.89
0.05 0.06 0.04 0.04 0.06 0.09 0.13 0.16 0.19 0.23 0.22 0.19 0.16 0.13 0.13 0.13 0.15 0.17 0.19 0.21 0.18 0.15 0.15 0.16 0.18 0.19 0.22 0.25 0.31 0.34 0.38 0.48 0.60 0.69 0.73 0.75 0.77 0.81 0.79 0.85 0.86 0.81 0.89
0.03 0.02 0.02 0.02 0.04 0.06 0.09 0.12 0.15 0.20 0.18 0.17 0.16 0.13 0.11 0.10 0.12 0.15 0.17 0.18 0.18 0.16 0.14 0.14 0.15 0.15 0.16 0.22 0.32 0.42 0.44 0.47 0.55 0.77 0.99 1.01 1.01 0.93 0.85 0.93 0.91 0.87 1.01
0.03 0.03 0.03 0.04 0.07 0.08 0.10 0.13 0.15 0.16 0.15 0.15 0.14 0.13 0.11 0.09 0.10 0.13 0.15 0.14 0.15 0.17 0.16 0.16 0.16 0.14 0.13 0.15 0.23 0.35 0.40 0.49 0.63 0.79 0.92 1.04 1.16 1.06 0.96 0.94 0.93 0.96 1.05
0.03 0.03 0.04 0.06 0.08 0.10 0.11 0.13 0.16 0.14 0.14 0.16 0.16 0.15 0.15 0.15 0.14 0.13 0.14 0.14 0.15 0.17 0.19 0.19 0.18 0.17 0.15 0.14 0.19 0.27 0.35 0.48 0.66 0.72 0.67 0.78 1.04 1.14 1.07 0.95 0.90 0.94 0.99
0.05 0.07 0.07 0.08 0.10 0.12 0.14 0.17 0.19 0.21 0.22 0.24 0.26 0.25 0.25 0.27 0.27 0.24 0.23 0.24 0.25 0.24 0.26 0.26 0.24 0.23 0.19 0.15 0.21 0.30 0.26 0.31 0.39 0.43 0.43 0.49 0.66 0.93 1.10 1.04 0.94 0.94 0.92
0.11 0.14 0.15 0.16 0.17 0.18 0.21 0.24 0.25 0.31 0.36 0.42 0.44 0.45 0.52 0.53 0.47 0.43 0.43 0.42 0.42 0.43 0.45 0.43 0.40 0.37 0.27 0.22 0.21 0.23 0.25 0.27 0.30 0.32 0.35 0.35 0.35 0.46 0.68 0.90 1.02 1.07 1.00
0.23 0.24 0.26 0.25 0.24 0.23 0.26 0.30 0.34 0.42 0.50 0.59 0.66 0.71 0.75 0.81 0.80 0.75 0.68 0.63 0.65 0.67 0.67 0.63 0.59 0.55 0.52 0.40 0.29 0.24 0.25 0.26 0.27 0.31 0.34 0.28 0.24 0.33 0.42 0.56 0.70 0.83 0.89
0.22 0.23 0.29 0.31 0.29 0.32 0.37 0.40 0.45 0.54 0.66 0.79 0.90 1.00 0.99 0.97 0.95 0.93 0.83 0.82 0.88 0.89 0.84 0.78 0.73 0.73 0.68 0.53 0.38 0.31 0.25 0.27 0.31 0.35 0.39 0.38 0.35 0.37 0.44 0.51 0.52 0.56 0.61
0.17 0.21 0.26 0.32 0.38 0.37 0.42 0.47 0.47 0.53 0.68 0.78 0.81 0.84 0.91 0.99 1.05 1.02 1.00 1.03 1.02 0.92 0.84 0.79 0.80 0.81 0.81 0.67 0.49 0.41 0.39 0.42 0.42 0.43 0.44 0.44 0.41 0.38 0.34 0.41 0.44 0.45 0.47
0.16 0.18 0.19 0.22 0.29 0.39 0.41 0.42 0.46 0.56 0.69 0.78 0.77 0.74 0.81 0.95 1.07 1.11 1.10 1.07 1.05 1.02 0.98 0.90 0.90 0.92 0.95 0.84 0.58 0.49 0.49 0.52 0.52 0.57 0.57 0.47 0.43 0.38 0.30 0.35 0.42 0.40 0.42
0.14 0.15 0.14 0.15 0.19 0.26 0.31 0.38 0.46 0.53 0.56 0.62 0.69 0.75 0.83 0.93 0.99 1.08 1.12 1.13 1.15 1.18 1.19 1.12 1.06 1.06 1.05 0.99 0.72 0.59 0.56 0.62 0.71 0.71 0.70 0.67 0.52 0.36 0.31 0.32 0.39 0.36 0.43
0.14 0.13 0.13 0.15 0.18 0.21 0.24 0.31 0.34 0.36 0.41 0.43 0.47 0.51 0.62 0.74 0.81 0.94 0.98 1.04 1.05 1.05 1.06 1.06 1.00 0.98 0.99 0.92 0.79 0.60 0.53 0.61 0.76 0.83 0.86 0.86 0.68 0.48 0.39 0.34 0.32 0.30 0.32
0.11 0.09 0.11 0.13 0.17 0.21 0.26 0.33 0.35 0.37 0.39 0.39 0.40 0.43 0.50 0.67 0.82 0.87 0.85 0.88 0.90 0.89 0.88 0.92 0.93 0.91 0.91 0.85 0.64 0.52 0.43 0.47 0.63 0.78 0.88 0.82 0.68 0.57 0.46 0.39 0.34 0.32 0.31
0.07 0.07 0.09 0.10 0.12 0.14 0.18 0.24 0.29 0.34 0.41 0.43 0.44 0.47 0.53 0.67 0.91 1.05 0.98 0.92 0.90 0.87 0.86 0.83 0.84 0.90 0.96 0.92 0.74 0.56 0.44 0.47 0.60 0.69 0.72 0.72 0.72 0.70 0.65 0.53 0.44 0.37 0.38
0.05 0.06 0.08 0.11 0.11 0.12 0.16 0.21 0.28 0.36 0.40 0.40 0.39 0.39 0.46 0.61 0.83 1.00 1.00 0.88 0.85 0.83 0.82 0.78 0.77 0.75 0.73 0.71 0.62 0.53 0.53 0.61 0.69 0.71 0.78 0.80 0.86 0.90 0.89 0.84 0.75 0.68 0.65
0.07 0.09 0.11 0.13 0.15 0.18 0.24 0.28 0.35 0.43 0.49 0.48 0.45 0.45 0.48 0.56 0.77 0.98 1.05 0.86 0.70 0.68 0.66 0.60 0.58 0.54 0.47 0.43 0.44 0.42 0.42 0.49 0.54 0.56 0.72 0.85 0.94 1.02 1.04 1.05 0.98 0.91 0.83